W4SNA-2 Weather Reports


Display with metric or nautical units.
time (UTC)temp
F
wind
direction
speed
MPH
gust
MPH
rain 1hr
in
rain 24hr
in
rain mn
in
humidity
%
barometer
mb
20230202234831 39 0 0.0 1.0 0.00 0.25 0.26 99 979.0
20230202234317 39 0 0.0 1.0 0.00 0.25 0.26 99 979.1
20230202233810 39 0 0.0 1.0 0.00 0.25 0.26 99 979.1
20230202233310 39 0 0.0 0.0 0.00 0.25 0.26 99 978.8
20230202232808 39 0 0.0 7.0 0.00 0.25 0.26 99 978.6
20230202232324 39 0 0.0 7.0 0.00 0.25 0.26 99 978.6
20230202231822 39 0 0.0 6.0 0.00 0.25 0.26 99 978.6
20230202231311 39 0 0.0 6.0 0.00 0.25 0.26 99 978.3
20230202230811 39 0 0.0 1.0 0.00 0.25 0.26 99 978.0
20230202230306 39 0 0.0 2.0 0.00 0.25 0.26 99 977.9
20230202225819 39 0 0.0 3.0 0.00 0.25 0.26 99 977.9
20230202225307 38 0 0.0 3.0 0.00 0.25 0.26 99 977.9
20230202224527 39 0 0.0 1.0 0.00 0.25 0.26 99 977.7
20230202224027 38 0 0.0 1.0 0.00 0.25 0.26 99 977.9
20230202223532 38 0 0.0 1.0 0.00 0.25 0.26 99 977.7
20230202223032 38 0 0.0 1.0 0.00 0.25 0.26 99 977.8
20230202222527 38 0 0.0 3.0 0.00 0.25 0.26 99 977.8
20230202222029 38 0 0.0 3.0 0.00 0.25 0.26 99 977.8
20230202221540 38 0 0.0 1.0 0.00 0.25 0.26 99 978.1
20230202221036 39 0 0.0 1.0 0.00 0.25 0.26 99 978.2
20230202220538 39 0 0.0 0.0 0.00 0.25 0.26 99 978.4
20230202220027 39 0 0.0 1.0 0.00 0.25 0.26 99 978.5
20230202215527 38 0 0.0 1.0 0.00 0.25 0.26 99 978.5
20230202215027 38 0 0.0 0.0 0.00 0.25 0.26 99 978.5
20230202214527 38 0 0.0 3.0 0.00 0.25 0.26 99 978.4
20230202214027 38 0 0.0 3.0 0.00 0.25 0.26 99 978.3
20230202213538 38 0 0.0 0.0 0.00 0.25 0.26 99 977.9
20230202213030 38 0 0.0 1.0 0.00 0.25 0.26 99 977.9
20230202212540 38 0 0.0 3.0 0.00 0.25 0.26 99 977.8
20230202212037 38 0 0.0 3.0 0.00 0.25 0.26 99 977.8
20230202211529 38 0 0.0 1.0 0.00 0.25 0.26 99 977.8
20230202211043 38 0 0.0 2.0 0.00 0.25 0.26 99 977.7
20230202210600 38 0 0.0 2.0 0.00 0.25 0.26 99 977.7
20230202210027 38 0 0.0 3.0 0.00 0.25 0.26 99 977.9
20230202205527 38 0 0.0 3.0 0.00 0.25 0.26 99 977.9
20230202205041 38 0 0.0 2.0 0.00 0.25 0.26 99 977.8
20230202204528 38 0 0.0 4.0 0.00 0.25 0.26 99 977.9
20230202204031 38 0 0.0 4.0 0.00 0.25 0.26 99 978.0
20230202203538 38 0 0.0 3.0 0.00 0.25 0.26 99 978.3
20230202203031 38 0 0.0 1.0 0.00 0.25 0.26 99 978.6
20230202202529 38 0 0.0 1.0 0.00 0.25 0.26 99 978.6
20230202202029 38 0 0.0 1.0 0.00 0.25 0.26 99 978.5
20230202201542 38 0 0.0 1.0 0.00 0.25 0.26 99 978.8
20230202201027 38 0 0.0 0.0 0.00 0.25 0.26 99 978.8
20230202200539 38 0 0.0 1.0 0.00 0.25 0.26 99 978.9
20230202200030 38 0 0.0 3.0 0.00 0.25 0.26 99 979.1
20230202195527 38 0 0.0 3.0 0.00 0.25 0.26 99 978.7
20230202195027 38 0 0.0 3.0 0.00 0.25 0.26 99 978.7
20230202194527 38 0 0.0 1.0 0.00 0.25 0.26 99 978.7
20230202194027 38 0 0.0 0.0 0.00 0.25 0.26 99 978.8
20230202193527 39 0 0.0 1.0 0.00 0.25 0.26 99 978.9
20230202193031 39 0 0.0 1.0 0.00 0.25 0.26 99 978.9
20230202192527 38 0 0.0 0.0 0.01 0.25 0.26 99 978.9
20230202192028 38 0 0.0 1.0 0.01 0.25 0.26 99 979.0
20230202191527 39 0 0.0 2.0 0.01 0.25 0.26 99 979.2
20230202191027 38 0 0.0 2.0 0.01 0.25 0.26 99 979.1
20230202190530 38 0 0.0 1.0 0.01 0.25 0.26 99 979.3
20230202190042 39 0 0.0 0.0 0.01 0.25 0.26 99 979.6
20230202185527 39 0 0.0 0.0 0.01 0.25 0.26 99 979.8
20230202185027 39 0 0.0 0.0 0.01 0.25 0.26 99 979.8
20230202184527 39 0 0.0 3.0 0.01 0.25 0.26 99 979.6
20230202184028 39 0 0.0 3.0 0.01 0.25 0.26 99 979.8
20230202183529 39 0 0.0 0.0 0.01 0.25 0.26 99 980.0
20230202183028 39 0 0.0 0.0 0.01 0.25 0.26 99 979.7
20230202182527 38 0 0.0 0.0 0.00 0.24 0.25 99 980.0
20230202182027 38 0 0.0 0.0 0.00 0.24 0.25 99 980.1
20230202181530 38 0 0.0 4.0 0.00 0.24 0.25 99 980.4
20230202181030 38 0 0.0 4.0 0.00 0.24 0.25 99 980.2
20230202180529 38 0 0.0 4.0 0.00 0.24 0.25 99 979.9
20230202180026 38 0 0.0 4.0 0.00 0.24 0.25 99 979.8
20230202175537 39 0 0.0 4.0 0.00 0.24 0.25 99 980.3
20230202175027 39 0 0.0 0.0 0.00 0.24 0.25 99 980.4
20230202174538 39 0 0.0 0.0 0.00 0.24 0.25 99 980.4
20230202174027 39 0 0.0 0.0 0.00 0.24 0.25 99 980.5
20230202173530 39 0 0.0 1.0 0.00 0.24 0.25 99 980.5
20230202173027 39 0 0.0 1.0 0.00 0.24 0.25 99 980.4
20230202172527 39 0 0.0 0.0 0.00 0.24 0.25 99 980.6
20230202172027 39 0 0.0 0.0 0.00 0.24 0.25 99 980.7
20230202171530 38 0 0.0 0.0 0.00 0.24 0.25 99 981.1
20230202171030 38 0 0.0 0.0 0.00 0.24 0.25 99 981.2
20230202170527 38 0 0.0 0.0 0.00 0.24 0.25 99 981.2
20230202170027 38 0 0.0 0.0 0.00 0.24 0.25 99 980.9
20230202165527 38 0 0.0 0.0 0.00 0.24 0.25 99 981.1
20230202165030 38 0 0.0 0.0 0.00 0.24 0.25 99 981.3
20230202164538 38 0 0.0 0.0 0.00 0.24 0.25 99 981.3
20230202164029 38 0 0.0 0.0 0.00 0.24 0.25 99 981.5
20230202163526 38 0 0.0 0.0 0.00 0.24 0.25 99 981.7
20230202163026 38 0 0.0 0.0 0.00 0.24 0.25 99 981.6
20230202162535 38 0 0.0 0.0 0.00 0.24 0.25 99 981.6
20230202162030 39 0 0.0 0.0 0.00 0.24 0.25 99 981.8
20230202161528 38 0 0.0 0.0 0.00 0.24 0.25 99 981.9
20230202161039 37 0 0.0 0.0 0.00 0.24 0.25 99 982.2
20230202160527 38 0 0.0 0.0 0.00 0.24 0.25 99 982.1
20230202160027 38 0 0.0 0.0 0.00 0.24 0.25 99 982.0
20230202155527 38 0 0.0 0.0 0.00 0.24 0.25 99 982.0
20230202155029 38 0 0.0 0.0 0.00 0.24 0.25 99 982.0
20230202154529 38 0 0.0 1.0 0.00 0.24 0.25 99 982.4
20230202154041 37 0 0.0 1.0 0.00 0.24 0.25 99 982.4
20230202153530 37 0 0.0 0.0 0.00 0.24 0.25 99 982.4
20230202153027 37 0 0.0 0.0 0.00 0.24 0.25 99 982.4
20230202152527 37 0 0.0 3.0 0.01 0.24 0.25 99 982.4
20230202152027 37 0 0.0 3.0 0.01 0.24 0.25 99 982.4
20230202151531 37 0 0.0 0.0 0.02 0.24 0.25 99 982.4
20230202151044 36 0 0.0 0.0 0.03 0.24 0.25 99 982.4
20230202150531 35 0 0.0 0.0 0.03 0.24 0.25 99 982.2
20230202145710 35 0 0.0 2.0 0.03 0.24 0.25 99 982.0
20230202145223 35 0 0.0 5.0 0.04 0.24 0.25 99 982.1
20230202144756 35 0 0.0 6.0 0.04 0.24 0.25 99 982.0
20230202144712 35 0 0.0 6.0 0.04 0.24 0.25 99 982.0
20230202144223 35 0 0.0 6.0 0.05 0.24 0.25 99 982.0
20230202143722 35 0 0.0 4.0 0.06 0.24 0.25 99 982.3
20230202143216 35 0 0.0 3.0 0.06 0.24 0.25 99 982.3
20230202142709 36 0 0.0 1.0 0.06 0.23 0.24 99 982.4
20230202142223 36 0 0.0 1.0 0.06 0.23 0.24 99 982.3
20230202141711 36 0 0.0 3.0 0.06 0.22 0.23 99 982.7
20230202141210 36 0 0.0 3.0 0.06 0.22 0.23 99 983.0
20230202140721 36 0 0.0 0.0 0.05 0.21 0.22 99 983.0
20230202140220 36 0 0.0 0.0 0.06 0.21 0.22 99 982.8
20230202135710 35 0 0.0 0.0 0.06 0.21 0.22 99 982.8
20230202135214 36 0 0.0 0.0 0.05 0.20 0.21 99 982.6
20230202134718 36 0 0.0 2.0 0.05 0.20 0.21 99 982.5
20230202134223 35 0 0.0 2.0 0.04 0.19 0.20 99 982.6
20230202133710 35 0 0.0 2.0 0.03 0.18 0.19 99 982.7
20230202133216 35 0 0.0 2.0 0.04 0.18 0.19 99 982.7
20230202132747 34 0 0.0 2.0 0.03 0.17 0.18 98 982.5
20230202132710 34 0 0.0 2.0 0.03 0.17 0.18 98 982.5
20230202132107 34 195 2.0 6.0 0.03 0.17 0.18 98 982.1
20230202131607 34 0 0.0 5.0 0.03 0.16 0.17 98 982.6
20230202131113 34 0 0.0 5.0 0.03 0.16 0.17 99 982.5
20230202130608 35 0 0.0 4.0 0.03 0.16 0.17 99 982.5
20230202130112 35 0 0.0 4.0 0.02 0.15 0.16 99 982.8
20230202125614 34 0 0.0 3.0 0.02 0.15 0.16 98 982.7
20230202125112 34 0 0.0 3.0 0.02 0.15 0.16 99 982.7
20230202124609 34 0 0.0 0.0 0.02 0.15 0.16 99 982.8
20230202123750 34 0 0.0 6.0 0.03 0.15 0.16 98 982.7
20230202123244 34 0 0.0 6.0 0.03 0.14 0.15 98 982.5
20230202122744 34 325 3.0 6.0 0.05 0.14 0.15 98 982.7
20230202122245 34 325 3.0 6.0 0.05 0.14 0.15 98 982.7
20230202121757 34 325 4.0 6.0 0.04 0.13 0.14 98 982.6
20230202121244 34 325 4.0 6.0 0.04 0.13 0.14 99 982.3
20230202120757 34 325 4.0 6.0 0.04 0.13 0.14 98 982.2
20230202120244 34 325 5.0 6.0 0.04 0.13 0.14 99 981.8
20230202115436 34 0 0.0 0.0 0.04 0.13 0.14 98 981.6
20230202114935 34 0 0.0 0.0 0.04 0.13 0.14 98 981.4
20230202114440 34 0 0.0 0.0 0.04 0.13 0.14 99 981.2
20230202113935 34 0 0.0 0.0 0.04 0.13 0.14 98 981.5
20230202113510 34 0 0.0 0.0 0.03 0.12 0.13 98 981.5
20230202113435 34 0 0.0 0.0 0.03 0.12 0.13 98 981.5
20230202112936 34 0 0.0 0.0 0.00 0.09 0.10 99 982.0
20230202112438 34 0 0.0 0.0 0.00 0.09 0.10 99 981.2
20230202111936 34 0 0.0 0.0 0.00 0.09 0.10 98 982.0
20230202111425 34 0 0.0 0.0 0.00 0.09 0.10 99 981.4
20230202110928 34 0 0.0 0.0 0.00 0.09 0.10 98 981.6
20230202110426 34 0 0.0 0.0 0.01 0.09 0.10 98 982.2
20230202105928 34 0 0.0 0.0 0.01 0.10 0.10 98 981.8
20230202105422 34 0 0.0 0.0 0.01 0.10 0.10 99 981.9
20230202104922 34 0 0.0 0.0 0.02 0.10 0.10 99 982.3
20230202104422 34 0 0.0 3.0 0.02 0.10 0.10 98 982.3
20230202103927 34 0 0.0 5.0 0.02 0.10 0.10 99 982.5
20230202103424 34 325 3.0 5.0 0.03 0.10 0.10 99 982.7
20230202102852 34 0 0.0 0.0 0.03 0.10 0.10 98 983.0
20230202102350 34 0 0.0 0.0 0.04 0.10 0.10 98 982.8
20230202101848 34 0 0.0 4.0 0.04 0.10 0.10 99 982.8
20230202101353 34 0 0.0 5.0 0.04 0.10 0.10 98 982.8
20230202100852 34 325 3.0 5.0 0.04 0.10 0.10 98 983.0
20230202100348 34 0 0.0 5.0 0.04 0.09 0.09 99 983.0
20230202095853 34 0 0.0 5.0 0.04 0.09 0.09 99 982.8
20230202095348 34 297 2.0 4.0 0.04 0.09 0.09 99 983.0
20230202094850 34 0 0.0 0.0 0.03 0.08 0.08 99 982.5
20230202094045 34 0 0.0 3.0 0.03 0.09 0.07 99 983.1
20230202093547 34 0 0.0 0.0 0.03 0.09 0.07 99 983.1
20230202093045 34 0 0.0 0.0 0.03 0.08 0.06 98 982.6
20230202092550 34 0 0.0 0.0 0.03 0.09 0.06 98 982.4
20230202092055 34 0 0.0 0.0 0.03 0.08 0.05 99 982.6
20230202091550 34 0 0.0 0.0 0.03 0.09 0.05 99 982.0
20230202091045 34 0 0.0 0.0 0.03 0.10 0.05 98 982.0
20230202090548 34 0 0.0 0.0 0.03 0.10 0.05 99 981.9
20230202085904 34 0 0.0 0.0 0.02 0.09 0.04 99 982.0
20230202085404 34 0 0.0 0.0 0.02 0.09 0.04 99 982.1
20230202084906 34 0 0.0 0.0 0.03 0.10 0.04 99 982.0
20230202084412 34 0 0.0 0.0 0.03 0.10 0.04 99 982.1
20230202083904 34 0 0.0 0.0 0.03 0.11 0.04 99 982.1
20230202083441 34 0 0.0 2.0 0.03 0.11 0.04 99 982.2
20230202083404 34 0 0.0 2.0 0.03 0.11 0.04 99 982.2
20230202082904 34 0 0.0 2.0 0.02 0.10 0.03 99 982.4
20230202082404 34 0 0.0 0.0 0.02 0.10 0.03 99 982.5
20230202081904 34 0 0.0 0.0 0.02 0.09 0.02 99 982.5
20230202081054 34 0 0.0 0.0 0.02 0.09 0.02 99 982.9
20230202080554 34 0 0.0 0.0 0.02 0.10 0.02 98 982.8
20230202080055 34 0 0.0 0.0 0.02 0.11 0.02 98 982.8
20230202075555 34 0 0.0 0.0 0.02 0.12 0.02 98 982.8
20230202075055 34 0 0.0 0.0 0.01 0.11 0.01 98 982.9
20230202074554 34 0 0.0 0.0 0.01 0.12 0.01 98 983.1
20230202074052 34 0 0.0 2.0 0.01 0.12 0.01 98 982.9
20230202073601 34 0 0.0 4.0 0.01 0.13 0.01 98 983.3
20230202073051 34 0 0.0 4.0 0.01 0.13 0.01 98 983.2
20230202072351 34 0 0.0 6.0 0.01 0.14 0.01 98 982.9
20230202071857 34 0 0.0 7.0 0.00 0.14 0.00 98 983.0
20230202071359 34 0 0.0 7.0 0.00 0.14 0.00 98 982.9
20230202070850 34 0 0.0 5.0 0.00 0.15 0.00 98 983.1
20230202070358 34 200 1.0 5.0 0.00 0.16 0.00 98 983.2
20230202065851 34 186 2.0 6.0 0.00 0.16 0.00 98 982.9
20230202065350 34 192 2.0 6.0 0.00 0.16 0.00 98 983.3
20230202064850 34 0 0.0 3.0 0.00 0.17 0.15 98 983.5
20230202063928 34 0 0.0 5.0 0.00 0.17 0.15 98 983.9
20230202063428 34 202 2.0 5.0 0.00 0.18 0.15 98 983.9
20230202062930 34 0 0.0 4.0 0.00 0.18 0.15 98 983.9
20230202062428 34 0 0.0 6.0 0.00 0.19 0.15 98 983.8
20230202061928 34 0 0.0 6.0 0.00 0.19 0.15 98 983.8
20230202061428 34 0 0.0 4.0 0.00 0.21 0.15 98 983.9
20230202060930 34 0 0.0 6.0 0.00 0.22 0.15 98 984.0
20230202060428 34 0 0.0 6.0 0.00 0.22 0.15 98 983.6
20230202055905 34 0 0.0 7.0 0.00 0.23 0.15 98 983.5
20230202055403 34 0 0.0 6.0 0.00 0.23 0.15 98 983.9
20230202054904 34 0 0.0 6.0 0.00 0.25 0.15 98 984.1
20230202054405 34 0 0.0 6.0 0.00 0.27 0.15 98 984.1
20230202053902 34 0 0.0 6.0 0.00 0.29 0.15 98 984.2
20230202053402 34 0 0.0 6.0 0.00 0.29 0.15 98 984.3
20230202052907 34 209 1.0 6.0 0.00 0.30 0.15 98 984.4
20230202052458 34 197 1.0 7.0 0.00 0.31 0.15 98 984.5
20230202051907 34 199 1.0 7.0 0.00 0.32 0.15 98 984.6
20230202051402 34 0 0.0 6.0 0.00 0.32 0.15 98 984.6
20230202050818 34 192 3.0 9.0 0.00 0.33 0.15 98 984.0
20230202050318 33 190 3.0 5.0 0.00 0.33 0.15 98 984.0
20230202045818 33 190 2.0 5.0 0.00 0.34 0.15 98 984.2
20230202045318 33 0 0.0 4.0 0.00 0.35 0.15 98 984.2
20230202044825 33 0 0.0 6.0 0.00 0.36 0.15 98 984.0
20230202044321 33 189 2.0 6.0 0.00 0.36 0.15 98 984.1
20230202043821 34 0 0.0 3.0 0.00 0.37 0.15 98 984.1
20230202043321 34 0 0.0 7.0 0.00 0.37 0.15 98 984.2
20230202042818 34 191 2.0 7.0 0.00 0.37 0.15 98 984.5
20230202042324 33 193 3.0 6.0 0.00 0.37 0.15 98 984.3
20230202041821 33 0 0.0 2.0 0.00 0.37 0.15 98 984.2
20230202041318 33 0 0.0 3.0 0.00 0.37 0.15 98 984.4
20230202040818 33 0 0.0 3.0 0.00 0.37 0.15 98 984.2
20230202040318 33 0 0.0 3.0 0.00 0.37 0.15 98 984.4
20230202035817 33 0 0.0 6.0 0.00 0.37 0.15 98 984.4
20230202035317 34 199 1.0 6.0 0.00 0.37 0.15 98 984.7
20230202034824 34 0 0.0 1.0 0.00 0.37 0.15 98 984.5
20230202034050 34 0 0.0 3.0 0.00 0.37 0.15 98 984.0
20230202033600 34 0 0.0 2.0 0.00 0.37 0.15 98 984.2
20230202033050 34 0 0.0 6.0 0.00 0.37 0.15 98 984.7
20230202032556 34 192 2.0 6.0 0.00 0.37 0.15 98 984.5
20230202032101 34 0 0.0 1.0 0.00 0.37 0.15 98 984.3
20230202031426 34 0 0.0 5.0 0.00 0.37 0.15 98 984.4
20230202030925 34 0 0.0 10.0 0.00 0.37 0.15 98 984.3
20230202030422 34 0 0.0 10.0 0.00 0.37 0.15 98 984.3
20230202025920 34 0 0.0 6.0 0.00 0.37 0.15 98 984.3
20230202025422 34 0 0.0 7.0 0.00 0.37 0.15 98 984.5
20230202024924 34 191 1.0 8.0 0.00 0.37 0.15 98 983.9
20230202024420 34 190 1.0 8.0 0.00 0.37 0.15 98 983.8
20230202023925 34 0 0.0 6.0 0.00 0.37 0.15 98 984.3
20230202023420 34 0 0.0 5.0 0.00 0.37 0.15 98 984.1
20230202022925 34 0 0.0 5.0 0.00 0.37 0.15 98 984.4
20230202022420 34 0 0.0 6.0 0.00 0.37 0.15 98 984.5
20230202021928 34 172 1.0 6.0 0.00 0.37 0.15 98 983.7
20230202021420 34 0 0.0 3.0 0.00 0.37 0.15 98 983.9
20230202020922 34 0 0.0 3.0 0.00 0.37 0.15 98 984.1
20230202020422 34 0 0.0 0.0 0.00 0.37 0.15 98 984.1
20230202015921 34 0 0.0 3.0 0.00 0.37 0.15 98 984.2
20230202015422 34 0 0.0 3.0 0.00 0.37 0.15 98 983.9
20230202014922 34 0 0.0 3.0 0.00 0.37 0.15 98 983.8
20230202014422 34 0 0.0 3.0 0.00 0.37 0.15 98 983.9
20230202013922 34 0 0.0 3.0 0.00 0.37 0.15 98 983.8
20230202013421 34 0 0.0 5.0 0.00 0.37 0.15 98 983.9
20230202012932 34 0 0.0 5.0 0.00 0.37 0.15 98 983.8
20230202012425 34 0 0.0 3.0 0.00 0.37 0.15 98 983.8
20230202011920 34 0 0.0 7.0 0.00 0.37 0.15 98 983.6
20230202011420 34 0 0.0 7.0 0.00 0.37 0.15 98 983.8
20230202010922 34 0 0.0 5.0 0.00 0.37 0.15 98 983.7
20230202010325 34 175 1.0 7.0 0.00 0.37 0.15 98 983.5
20230202005825 34 169 3.0 7.0 0.00 0.37 0.15 98 983.5
20230202005325 34 178 1.0 5.0 0.00 0.37 0.15 98 983.5
20230202004828 35 177 1.0 5.0 0.00 0.37 0.15 98 983.8
20230202004326 35 179 1.0 3.0 0.00 0.37 0.15 98 983.9
20230202003829 35 0 0.0 3.0 0.00 0.37 0.15 98 983.7
20230202003326 35 0 0.0 3.0 0.00 0.37 0.15 98 984.1
20230202002826 35 0 0.0 3.0 0.00 0.37 0.15 98 984.0
20230202002326 35 0 0.0 3.0 0.00 0.37 0.15 98 983.8
20230202001828 35 0 0.0 4.0 0.00 0.37 0.15 98 983.9
20230202001338 35 0 0.0 4.0 0.00 0.37 0.15 98 983.7
20230202000827 35 0 0.0 7.0 0.00 0.37 0.15 98 983.6
20230202000325 35 0 0.0 7.0 0.00 0.37 0.15 98 983.7
20230201235825 35 0 0.0 7.0 0.00 0.37 0.15 98 983.6